Location: Chervonnoye
(48.6000°N, 34.4000°E)
Time: 07:03:43
(UTC+00:00)

KAITUO 1B - Pass Details

Date: 30 November 2021
Orbit: 486 x 507 km, 97.4° (Epoch: 18 January)

Event Time Altitude Azimuth Distance (km) Brightness Sun altitude
Rises 02:58:56 0° 34° (NE) 2,634 ? -21.3°
Reaches altitude 10° 03:02:39 10° 73° (ENE) 1,736 ? -20.7°
Maximum altitude 03:03:38 11° 88° (E) 1,682 ? -20.5°
Drops below altitude 10° 03:04:36 10° 103° (ESE) 1,730 ? -20.3°
Sets 03:08:16 0° 142° (SE) 2,601 ? -19.7°
